Location: Pittman
(37.9557°N, 80.9209°W)
Time: 15:23:22
(UTC+00:00)

Envisat - Pass Details

Date: 26 April 2026
Orbit: 761 x 762 km, 98.4° (Epoch: 15 May)

Event Time Altitude Azimuth Distance (km) Brightness Sun altitude
Rises 07:41:52 0° 17° (NNE) 3,229 7.2 -28.9°
Reaches altitude 10° 07:44:13 10° 21° (NNE) 2,299 6.3 -28.6°
Maximum altitude 07:49:13 59° 101° (E) 878 3.3 -27.9°
Enters shadow 07:49:23 59° 110° (ESE) 880 3.3 -27.9°
